Temperature
4 4 4 4 4 4 4 4 4 4 4 6 5 5 5 6 6 6 6 6 6 6 6 6 6 6 6 6 6 6 6 6 6 5 5 5 5 5 5 4 4 4 4 4
3 4 4 4 4 4 4 4 4 4 4 5 5 5 5 5 5 5 6 6 6 6 6 6 6 6 6 6 6 5 5 5 5 5 5 4 4 4 4 4 4 4 4 4
3 3 3 4 4 4 4 3 4 4 5 4 4 4 4 5 5 5 5 6 6 6 5 6 6 6 5 5 5 5 5 5 4 4 4 4 4 4 4 3 3 3 3 3
2 3 3 5 4 4 4 4 3 4 4 4 4 4 5 5 5 5 5 5 5 5 5 5 5 5 5 5 4 4 4 4 4 4 4 3 3 3 3 3 3 3 3 2
2 2 3 4 3 3 3 3 3 3 3 3 3 3 3 4 5 5 5 5 5 5 5 5 5 4 4 4 4 4 4 3 3 3 3 3 3 3 2 2 2 2 2 2
2 2 3 4 3 3 4 3 3 2 2 2 2 2 2 4 4 4 4 4 4 4 4 4 4 4 4 3 3 3 3 3 3 3 2 2 2 2 2 2 2 2 1 1
1 2 2 2 2 3 3 3 2 2 2 2 2 2 3 3 3 3 3 3 3 3 3 3 3 3 3 3 3 3 3 2 2 2 2 2 2 2 1 1 1 1 1 1
1 1 2 2 2 2 2 2 3 2 2 2 2 2 2 2 2 3 2 2 2 3 3 3 2 2 2 3 2 2 2 2 2 2 1 1 1 1 1 1 0 0 0 -0
1 1 1 2 2 2 3 2 2 2 2 2 2 2 2 2 2 2 2 2 2 2 2 2 2 2 2 2 2 1 1 1 1 1 1 1 0 0 0 -0 -0 -0 -1 -1
-0 0 0 1 2 2 2 2 2 2 2 2 2 1 1 1 1 1 1 1 1 1 1 1 1 1 1 1 1 1 1 1 1 0 0 0 -0 -0 -0 -0 -1 -1 -1 -1
-1 -1 -0 1 1 2 2 2 1 1 1 1 1 1 1 1 1 1 1 1 1 1 1 1 1 1 0 0 0 0 0 0 -0 -0 -0 -0 -0 -1 -1 -1 -1 -1 -1 -1
-1 -0 -0 0 1 1 1 1 1 1 1 0 0 0 0 0 0 0 0 0 0 0 0 0 0 0 0 -0 -0 -1 -1 -1 -1 -1 -1 -1 -1 -1 -1 -1 -1 -2 -2 -2
0 0 0 0 0 1 0 0 0 0 -0 -0 -0 -0 -1 -1 -1 -1 -1 -0 -0 -0 -0 -1 -1 -1 -1 -1 -1 -1 -1 -1 -2 -2 -2 -2 -2 -2 -2 -2 -2 -2 -2 -2
-0 -0 -1 -0 -0 -0 -0 -1 -1 -1 -1 -1 -1 -1 -1 -1 -1 -1 -1 -1 -1 -1 -1 -1 -1 -1 -1 -1 -1 -2 -2 -2 -2 -2 -2 -2 -2 -2 -2 -2 -3 -2 -2 -3
-1 -1 -1 -1 -1 -1 -1 -1 -1 -1 -1 -1 -1 -1 -1 -1 -1 -1 -1 -1 -1 -1 -1 -2 -2 -2 -2 -2 -2 -2 -2 -2 -2 -3 -3 -3 -3 -3 -3 -3 -3 -3 -3 -3
-2 -2 -2 -2 -2 -2 -2 -2 -2 -2 -2 -2 -2 -2 -2 -2 -2 -2 -2 -2 -2 -2 -2 -2 -2 -2 -2 -2 -2 -3 -3 -3 -3 -3 -3 -3 -3 -4 -4 -4 -4 -4 -4 -3
-3 -3 -3 -2 -2 -2 -2 -2 -2 -2 -2 -2 -2 -2 -2 -2 -2 -2 -2 -2 -2 -2 -2 -2 -2 -3 -3 -3 -3 -3 -3 -3 -3 -4 -4 -4 -4 -4 -4 -4 -4 -4 -4 -4
-3 -3 -3 -3 -3 -3 -3 -3 -3 -3 -3 -2 -2 -2 -2 -2 -2 -2 -2 -3 -3 -3 -3 -3 -3 -3 -3 -3 -4 -4 -4 -4 -4 -4 -4 -4 -4 -4 -4 -4 -4 -4 -4 -4
-3 -3 -3 -3 -3 -3 -3 -3 -3 -3 -3 -3 -3 -3 -3 -3 -3 -3 -3 -3 -3 -3 -3 -3 -4 -4 -4 -4 -4 -4 -4 -4 -4 -4 -5 -5 -5 -5 -5 -5 -5 -5 -5 -5
-3 -3 -3 -3 -3 -4 -3 -3 -3 -3 -3 -3 -3 -3 -3 -3 -4 -4 -4 -4 -4 -4 -4 -4 -4 -4 -4 -4 -5 -5 -5 -5 -5 -5 -5 -5 -5 -5 -5 -5 -5 -5 -5 -5
-4 -4 -4 -4 -4 -4 -4 -4 -4 -4 -4 -4 -4 -4 -4 -4 -4 -4 -4 -4 -4 -4 -5 -5 -5 -5 -5 -5 -5 -5 -5 -5 -5 -5 -5 -6 -6 -6 -6 -6 -6 -6 -6 -6
-4 -4 -4 -4 -4 -4 -4 -4 -4 -4 -4 -4 -4 -5 -5 -5 -5 -5 -5 -5 -5 -5 -5 -5 -5 -5 -5 -6 -6 -5 -5 -6 -6 -6 -6 -6 -6 -6 -6 -6 -6 -6 -6 -6
-5 -5 -5 -5 -5 -5 -5 -5 -5 -5 -5 -5 -5 -5 -5 -5 -5 -6 -5 -5 -5 -5 -6 -6 -6 -6 -6 -6 -6 -6 -6 -6 -6 -6 -6 -6 -6 -6 -6 -6 -6 -6 -6 -6
-5 -5 -5 -5 -5 -5 -5 -5 -5 -5 -5 -5 -5 -6 -6 -6 -6 -6 -6 -6 -6 -6 -6 -6 -6 -6 -6 -6 -6 -6 -6 -6 -6 -6 -7 -7 -7 -7 -7 -7 -7 -7 -7 -7
-6 -6 -6 -6 -6 -6 -6 -6 -6 -6 -6 -6 -6 -6 -6 -6 -6 -6 -6 -6 -6 -6 -6 -6 -6 -6 -6 -6 -6 -6 -6 -6 -7 -7 -7 -7 -7 -7 -7 -7 -7 -7 -7 -7
-6 -6 -6 -6 -6 -7 -7 -7 -6 -6 -6 -6 -6 -6 -6 -7 -7 -7 -7 -7 -7 -7 -7 -7 -7 -7 -7 -7 -7 -7 -7 -7 -7 -7 -7 -7 -7 -7 -7 -7 -7 -7 -7 -7
-7 -7 -7 -7 -7 -7 -7 -7 -7 -7 -7 -7 -7 -7 -7 -7 -7 -7 -7 -7 -7 -7 -7 -7 -7 -7 -7 -7 -7 -7 -7 -7 -7 -7 -7 -7 -7 -7 -7 -7 -7 -7 -7 -7
Wind_Speed
6 4 4 6 9 11 11 10 10 9 9 10 6 4 3 2 1 1 1 1 1 1 2 2 2 2 2 2 2 3 3 3 3 3 3 3 3 3 3 4 4 4 4 4
4 3 4 6 9 12 12 10 9 7 9 6 4 2 2 3 3 3 2 2 2 1 2 2 3 3 2 2 2 3 3 3 3 2 2 3 3 3 3 3 3 3 4 4
4 2 1 8 10 11 7 7 8 11 10 3 3 4 5 4 4 4 4 3 3 3 3 3 4 3 3 3 2 2 3 3 3 3 3 3 3 3 3 4 3 3 4 4
2 2 8 7 3 8 8 6 7 5 5 5 5 3 3 3 4 4 4 3 3 3 3 2 2 2 2 2 2 2 3 3 3 3 3 3 3 3 4 3 3 4 4 4
4 5 6 5 2 5 6 5 5 7 5 3 1 2 2 2 2 3 3 3 3 3 2 2 2 2 2 2 2 3 3 4 4 4 4 4 4 4 4 3 4 4 4 5
4 5 7 4 1 2 4 3 1 4 4 3 3 1 4 2 1 1 1 1 1 1 1 1 2 2 2 3 3 5 5 5 4 4 5 5 6 5 4 4 5 5 5 5
6 5 5 3 1 3 5 4 1 2 3 3 3 4 2 1 1 0 0 1 0 0 0 2 2 2 3 4 5 5 4 3 3 4 4 5 5 4 4 4 4 4 5 5
4 4 6 1 4 4 3 0 1 1 1 2 2 1 0 0 1 1 1 1 0 0 1 2 1 2 3 5 5 3 3 3 4 4 4 3 4 4 4 4 4 5 5 5
5 4 2 1 2 1 1 1 0 1 1 2 1 1 0 0 1 0 0 1 1 0 2 2 1 2 3 5 3 2 3 4 4 4 3 4 4 4 4 4 4 5 5 5
2 2 1 1 1 1 1 0 0 1 1 2 1 1 1 1 1 1 1 1 1 1 2 4 3 3 4 4 2 2 3 4 4 3 4 4 4 4 5 5 5 5 6 6
2 2 2 2 1 0 1 1 2 1 1 1 1 1 1 2 2 2 2 2 1 2 3 5 4 4 4 4 2 3 4 4 4 4 4 4 4 5 6 6 7 7 6 6
4 4 2 3 2 1 1 1 1 1 2 1 1 1 1 2 2 2 3 3 3 3 4 5 5 5 5 4 3 3 4 4 4 4 4 4 4 4 7 9 11 12 12 10
3 2 1 2 2 1 0 1 1 0 0 1 1 1 1 2 2 3 3 4 4 5 5 5 5 6 6 4 4 4 5 5 4 4 4 4 4 4 5 5 8 10 11 11
2 0 1 2 2 2 1 1 1 1 1 0 1 1 1 2 3 3 5 5 5 5 5 5 6 7 6 4 4 5 5 6 5 4 4 5 5 5 5 5 5 5 6 10
2 1 2 2 1 1 1 1 1 2 2 2 2 2 2 3 4 5 5 5 5 5 5 5 6 7 5 4 4 5 5 4 4 4 4 4 4 4 5 5 5 5 4 5
2 2 1 1 1 1 1 1 1 3 3 3 3 3 4 4 5 5 5 4 4 6 6 6 7 7 5 4 4 4 4 7 6 4 4 4 4 5 5 5 5 5 5 5
1 2 2 2 2 3 2 2 3 4 3 4 4 4 4 4 4 5 6 5 5 7 7 7 7 6 5 5 5 4 4 5 7 5 4 5 5 5 5 5 6 6 6 6
1 2 2 3 3 3 4 3 3 3 3 4 4 3 4 4 6 7 7 6 6 6 6 6 6 6 5 5 4 4 4 4 4 5 5 5 5 5 5 6 6 6 5 6
3 3 3 3 2 2 3 4 4 4 4 4 4 4 5 5 6 7 6 6 6 7 6 5 8 6 5 6 6 4 4 5 5 5 5 7 7 5 5 6 6 6 5 5
4 3 3 4 3 3 3 4 4 4 4 4 4 5 6 6 6 6 6 6 6 6 6 7 6 5 5 6 6 4 4 5 5 5 5 5 6 6 6 6 5 5 5 5
4 4 4 4 5 4 4 4 4 5 5 4 5 6 7 7 6 5 5 7 6 5 6 8 5 5 5 5 6 4 4 5 5 5 5 5 5 6 5 5 6 6 6 5
4 4 5 5 5 6 5 4 4 5 5 5 5 5 6 7 6 6 6 6 6 8 6 4 4 7 7 7 4 4 5 5 5 5 5 5 5 5 6 6 6 6 5 5
5 5 5 5 5 6 6 5 5 5 5 6 6 6 6 6 5 5 6 4 5 8 7 5 7 10 10 5 3 4 4 5 5 5 5 5 5 5 5 6 5 5 5 5
5 5 5 5 4 4 6 6 5 4 5 6 6 6 5 5 5 4 5 8 10 10 6 7 10 10 9 4 3 4 4 5 5 5 5 5 5 5 5 5 5 5 5 5
5 5 5 4 5 5 6 6 5 5 5 5 5 5 4 4 5 5 5 6 8 9 5 7 9 9 5 4 4 4 5 5 5 5 5 5 5 5 5 5 5 5 5 5
5 5 5 4 4 4 4 4 4 4 4 5 5 4 4 4 4 5 4 5 6 7 6 5 5 6 4 4 4 5 5 5 6 5 5 5 5 5 5 5 5 5 4 4
5 4 4 4 4 3 3 3 4 5 4 5 6 5 4 4 4 5 5 5 5 5 5 4 4 4 4 4 4 4 4 4 4 4 4 4 4 4 4 5 4 4 4 4
Wind_Direction
248 245 202 217 214 199 204 205 209 227 226 245 248 250 264 255 227 187 208 198 201 201 205 204 198 186 175 176 169 165 165 185 212 215 205 203 208 212 208 204 210 207 208 216
263 234 226 244 229 214 218 217 227 241 253 248 238 233 237 217 199 208 230 231 227 222 213 214 213 207 193 193 186 166 175 201 210 200 198 204 209 206 203 211 214 207 212 217
247 248 277 251 221 204 204 205 197 224 236 203 216 220 226 221 206 210 222 227 224 222 224 229 225 209 204 205 184 171 191 206 203 198 206 214 210 202 213 219 215 216 222 222
206 164 230 244 203 191 198 214 206 216 226 209 217 233 243 220 206 215 223 226 233 233 237 244 231 215 198 181 182 195 210 218 212 201 212 214 205 215 226 223 221 228 231 231
189 219 260 279 228 171 186 232 214 213 224 216 136 53 314 252 205 207 221 230 231 228 230 229 224 203 176 197 203 212 225 228 224 213 216 217 221 228 231 226 232 234 235 232
186 200 229 246 253 206 145 241 255 196 212 193 128 184 256 271 295 263 263 249 235 229 203 211 231 185 181 215 219 227 230 230 224 218 218 223 227 232 236 228 234 235 242 238
209 220 251 272 287 123 167 234 232 195 204 178 186 210 229 301 317 177 227 310 35 122 201 235 224 186 215 231 236 238 235 234 230 222 225 229 231 234 231 232 236 241 248 252
189 210 249 267 118 165 207 162 132 141 157 154 176 191 313 16 352 48 28 356 31 47 295 286 230 194 230 249 252 246 234 236 237 231 230 231 221 232 227 223 233 244 250 261
192 214 274 144 165 218 136 103 110 154 172 146 154 204 242 277 311 283 290 304 308 254 295 304 277 215 241 262 255 241 243 247 248 244 237 226 219 226 233 225 230 241 242 252
213 271 308 309 313 351 72 108 355 139 125 131 157 246 293 299 310 304 292 288 289 295 294 298 296 278 262 267 251 234 250 257 251 242 245 237 228 221 224 228 232 238 241 246
232 269 348 346 311 271 26 46 54 54 77 143 164 288 279 284 292 296 294 291 281 271 276 284 291 287 283 268 239 247 256 256 253 246 241 242 240 233 230 232 229 231 237 235
224 223 200 260 298 321 38 353 3 32 23 36 132 238 302 292 287 292 294 294 292 282 279 284 287 286 285 270 241 239 259 258 253 249 245 242 248 269 253 246 254 250 248 247
232 260 223 267 311 328 312 318 334 335 234 324 330 262 262 282 289 287 290 285 276 276 279 284 286 285 284 269 246 240 252 258 255 249 247 244 242 248 273 279 261 256 256 257
281 20 332 295 300 326 334 334 31 31 0 272 278 292 284 291 297 295 288 281 276 278 280 280 282 283 283 270 256 254 256 257 255 249 248 247 246 248 249 258 271 272 262 258
330 253 232 274 323 344 347 13 22 334 322 319 315 301 292 286 287 286 285 287 286 283 282 281 281 284 285 271 261 259 257 255 253 251 251 251 250 251 250 250 256 265 271 265
341 358 326 301 298 323 336 323 295 290 290 291 293 285 278 273 279 287 292 290 283 283 284 282 279 283 285 274 268 266 260 262 263 258 255 254 250 249 250 251 253 255 256 256
360 342 334 317 309 309 299 278 267 274 280 279 280 288 294 298 299 300 298 293 277 274 276 275 277 284 281 271 262 263 262 264 265 264 255 255 253 250 251 251 252 254 255 253
302 289 286 272 276 289 296 296 287 280 277 278 288 295 296 295 292 294 296 300 296 289 278 271 275 283 279 271 263 259 257 260 259 257 260 259 260 256 254 254 253 255 262 261
0 346 336 323 300 285 287 293 293 289 288 287 287 286 283 281 281 285 292 296 293 292 289 282 292 291 279 276 281 256 254 258 261 262 261 264 267 261 256 254 255 255 256 257
354 343 336 330 325 309 297 296 296 295 291 283 282 286 288 287 286 288 288 282 270 267 281 290 292 283 278 277 284 264 257 258 261 262 261 259 260 260 257 256 255 255 255 254
330 328 327 322 315 309 299 296 296 295 297 290 279 280 285 290 291 289 290 292 287 282 287 294 293 284 282 282 284 270 263 264 265 263 261 261 263 262 260 259 259 258 256 257
313 311 310 309 307 304 303 299 291 291 294 291 284 281 286 291 293 288 270 268 283 299 302 285 282 286 291 293 278 271 269 268 268 267 264 264 265 267 267 265 263 262 259 257
298 295 297 298 296 295 299 298 291 288 286 287 287 285 281 281 284 287 293 288 289 298 301 284 290 296 300 299 282 278 277 275 272 271 269 268 268 267 268 268 266 263 260 259
296 297 296 296 297 296 297 297 297 291 285 286 284 280 281 289 291 272 269 293 304 304 297 293 301 302 306 302 286 281 278 277 277 274 273 272 270 269 269 269 268 264 260 258
293 294 294 298 297 292 290 298 304 301 300 296 292 288 282 272 276 290 293 292 301 307 302 302 305 308 309 293 287 284 282 277 276 278 273 273 273 273 272 272 270 268 264 261
291 290 285 281 281 289 296 300 302 304 306 306 306 302 298 294 288 291 295 295 297 306 307 300 301 305 303 295 291 289 287 289 290 287 280 276 273 273 273 274 274 274 270 265
295 292 295 300 297 291 290 290 293 298 299 299 302 306 307 307 305 304 302 303 305 306 304 300 299 299 299 297 296 296 295 293 292 289 287 283 279 276 274 273 274 273 271 267
Height
1454 1453 1455 1455 1456 1460 1462 1462 1465 1460 1459 1451 1450 1451 1451 1451 1451 1452 1453 1454 1455 1456 1458 1459 1460 1461 1463 1465 1466 1467 1468 1469 1470 1472 1473 1474 1475 1476 1477 1477 1478 1479 1479 1479
1455 1453 1453 1452 1451 1452 1453 1454 1456 1455 1453 1448 1448 1449 1449 1449 1450 1450 1451 1452 1453 1454 1456 1457 1458 1459 1460 1461 1463 1464 1464 1465 1467 1468 1469 1470 1471 1471 1472 1473 1473 1474 1474 1475
1455 1453 1451 1449 1444 1445 1446 1446 1448 1448 1445 1446 1447 1447 1447 1447 1448 1448 1449 1451 1451 1452 1453 1454 1455 1456 1457 1458 1459 1460 1461 1462 1463 1463 1464 1465 1466 1466 1467 1468 1468 1468 1469 1469
1454 1454 1451 1437 1435 1435 1438 1439 1441 1441 1441 1442 1443 1444 1445 1445 1445 1446 1447 1448 1449 1449 1450 1451 1452 1453 1454 1455 1456 1456 1457 1458 1458 1459 1460 1460 1461 1462 1462 1463 1463 1463 1463 1464
1451 1450 1443 1436 1434 1435 1437 1437 1437 1438 1438 1440 1441 1443 1443 1443 1444 1444 1445 1446 1446 1447 1448 1448 1449 1450 1450 1451 1452 1453 1453 1454 1454 1455 1455 1455 1456 1457 1457 1458 1458 1458 1458 1458
1448 1446 1440 1433 1432 1431 1434 1437 1436 1436 1437 1438 1440 1444 1443 1441 1441 1441 1442 1443 1443 1444 1445 1445 1446 1447 1447 1447 1448 1449 1449 1450 1450 1450 1451 1451 1451 1452 1452 1452 1452 1452 1452 1453
1442 1441 1436 1433 1431 1431 1438 1435 1434 1434 1434 1436 1437 1439 1440 1439 1439 1440 1440 1441 1441 1442 1442 1443 1443 1444 1444 1444 1444 1445 1445 1445 1445 1446 1446 1446 1446 1447 1447 1447 1447 1447 1447 1447
1440 1441 1439 1431 1432 1434 1433 1432 1432 1433 1434 1434 1435 1436 1437 1438 1438 1438 1438 1439 1439 1439 1440 1440 1441 1441 1440 1440 1440 1440 1440 1440 1440 1441 1441 1441 1441 1442 1442 1442 1442 1441 1441 1440
1435 1435 1432 1430 1431 1431 1431 1432 1432 1433 1433 1434 1435 1435 1436 1436 1437 1437 1437 1437 1438 1437 1437 1437 1437 1437 1436 1436 1436 1436 1436 1435 1436 1436 1436 1436 1436 1436 1436 1436 1436 1435 1435 1434
1434 1432 1430 1430 1430 1431 1431 1432 1432 1433 1433 1434 1434 1435 1435 1435 1435 1435 1435 1435 1435 1435 1434 1434 1434 1434 1433 1432 1432 1431 1431 1430 1430 1430 1430 1431 1431 1431 1431 1430 1430 1429 1429 1428
1432 1431 1430 1429 1430 1431 1431 1431 1432 1432 1432 1433 1433 1433 1434 1434 1434 1433 1433 1433 1433 1432 1431 1431 1430 1430 1429 1428 1427 1426 1426 1425 1425 1425 1425 1425 1425 1425 1424 1424 1424 1423 1423 1422
1431 1429 1430 1430 1430 1430 1430 1430 1431 1431 1431 1431 1432 1432 1432 1432 1432 1432 1431 1431 1430 1429 1428 1427 1426 1425 1425 1424 1423 1422 1421 1420 1420 1420 1419 1419 1419 1418 1418 1418 1418 1417 1417 1417
1427 1428 1428 1428 1429 1429 1429 1429 1429 1429 1429 1430 1430 1430 1430 1430 1430 1430 1429 1428 1427 1426 1425 1424 1422 1421 1420 1419 1418 1417 1416 1415 1415 1414 1414 1413 1413 1412 1411 1411 1411 1410 1410 1410
1426 1427 1427 1427 1427 1428 1427 1427 1427 1427 1428 1428 1428 1428 1428 1427 1427 1426 1426 1425 1424 1423 1421 1420 1418 1417 1416 1415 1413 1412 1411 1411 1410 1409 1408 1408 1407 1407 1406 1405 1404 1403 1404 1404
1426 1426 1426 1426 1426 1426 1426 1426 1426 1426 1426 1426 1426 1426 1425 1425 1424 1423 1422 1421 1420 1418 1417 1416 1414 1413 1412 1410 1409 1407 1406 1405 1405 1404 1403 1403 1402 1401 1400 1399 1398 1398 1397 1397
1425 1424 1424 1424 1424 1424 1424 1424 1424 1424 1424 1423 1423 1423 1422 1422 1420 1420 1419 1417 1416 1414 1413 1411 1410 1408 1407 1405 1404 1402 1401 1401 1400 1399 1398 1397 1396 1395 1394 1394 1393 1392 1392 1392
1424 1423 1423 1423 1422 1422 1422 1422 1422 1421 1421 1421 1420 1420 1419 1418 1417 1415 1414 1413 1412 1410 1408 1407 1405 1404 1402 1401 1399 1397 1396 1395 1395 1394 1393 1392 1391 1390 1389 1388 1388 1387 1387 1387
1423 1423 1422 1422 1421 1421 1420 1420 1420 1419 1418 1418 1417 1416 1415 1414 1413 1411 1410 1408 1407 1405 1404 1402 1401 1399 1397 1396 1394 1392 1391 1390 1390 1389 1388 1387 1386 1385 1384 1383 1382 1382 1381 1381
1422 1422 1421 1421 1420 1419 1418 1418 1417 1416 1416 1415 1414 1413 1411 1410 1409 1407 1405 1403 1401 1400 1398 1397 1396 1394 1392 1391 1389 1388 1386 1385 1384 1383 1382 1381 1380 1379 1379 1378 1377 1376 1376 1375
1422 1421 1421 1420 1419 1418 1417 1416 1415 1414 1413 1412 1410 1409 1408 1406 1405 1403 1401 1399 1397 1395 1394 1392 1390 1389 1387 1385 1384 1382 1381 1380 1379 1378 1377 1376 1375 1374 1374 1373 1372 1371 1371 1370
1421 1420 1419 1418 1417 1416 1414 1413 1411 1410 1409 1408 1407 1405 1403 1402 1400 1398 1396 1393 1392 1391 1389 1387 1385 1384 1382 1380 1379 1378 1376 1375 1374 1373 1372 1371 1370 1369 1368 1368 1367 1366 1365 1364
1419 1418 1417 1415 1414 1412 1411 1410 1408 1407 1405 1404 1403 1401 1399 1397 1395 1393 1391 1390 1388 1386 1384 1382 1381 1379 1378 1376 1374 1373 1372 1370 1369 1368 1367 1366 1365 1364 1363 1362 1361 1360 1360 1359
1417 1415 1414 1412 1411 1409 1407 1406 1404 1403 1401 1400 1398 1397 1395 1393 1391 1389 1387 1385 1384 1382 1380 1378 1376 1375 1373 1372 1370 1369 1367 1366 1364 1363 1362 1361 1360 1359 1358 1357 1356 1355 1354 1354
1414 1412 1410 1409 1407 1405 1403 1402 1401 1399 1398 1396 1394 1393 1391 1389 1387 1385 1383 1381 1379 1377 1375 1374 1372 1371 1369 1367 1366 1364 1363 1361 1360 1359 1357 1356 1355 1354 1353 1352 1351 1350 1349 1349
1410 1408 1407 1405 1403 1401 1400 1398 1397 1395 1394 1392 1391 1389 1387 1385 1383 1381 1379 1377 1375 1373 1371 1370 1368 1367 1365 1363 1362 1360 1359 1357 1356 1355 1353 1352 1351 1350 1349 1348 1347 1346 1345 1344
1406 1404 1403 1401 1400 1398 1396 1395 1393 1391 1390 1388 1387 1385 1383 1381 1379 1377 1375 1373 1371 1370 1368 1366 1364 1363 1361 1360 1358 1357 1355 1354 1352 1351 1350 1348 1347 1346 1345 1344 1343 1342 1341 1340
1402 1400 1399 1397 1396 1395 1393 1391 1390 1388 1386 1384 1382 1381 1379 1377 1375 1373 1372 1370 1368 1366 1364 1363 1361 1360 1358 1357 1355 1354 1352 1351 1349 1348 1346 1345 1344 1343 1341 1340 1339 1339 1338 1337